{"data":{"norad_id":67967,"epoch":"2026-09-19T22:14:25.963296Z","epoch_age_seconds":109081,"freshness":"FRESH","line1":"1 67967U 26038G   26262.92668939  .00012460  00000+0  38757-3 0  9999","line2":"2 67967  97.2853 271.2427 0003252 119.6515 240.5052 15.33447083 33008","mean_motion":15.33447083,"eccentricity":0.0003252,"inclination_deg":97.2853,"raan_deg":271.2427,"arg_perigee_deg":119.6515,"mean_anomaly_deg":240.5052,"bstar":0.00038757,"rev_number":3300,"period_min":93.90607709676,"perigee_km":463.31141416536,"apogee_km":467.76253971996,"semimajor_km":6843.6739769427,"source":"CELESTRAK","updated_at":"2026-09-20T09:00:43.714413Z"}}